Weather Roundup
Issued by NWS Springfield, MO

Home | Current Version | Previous Version | Text Only | Print | Product List | Glossary On
Versions: 1 2 3 4 5 6 7 8 9 10 11 12 13 14 15 16 17 18 19 20 21 22 23 24 25 26 27 28 29 30 31 32 33 34 35 36 37 38 39 40 41 42 43 44 45 46 47 48 49 50
000
NZUS99 KSGF 271007
HRRSGF

HOURLY WEATHER
NATIONAL WEATHER SERVICE SPRINGFIELD MO
500 AM CDT SUN MAY 27 2018

......SGF CWA......

CITY           SKY/WX    TMP DP  RH WIND       PRES   REMARKS
SPRINGFIELD    CLEAR     70  66  87 S7        29.88R
JOPLIN         CLEAR     71  67  87 S7        29.86S
WEST PLAINS    CLEAR     66  64  93 CALM      29.91S
ROLLA          CLEAR     69  66  90 SW9       29.88S
OSAGE BEACH    CLEAR     69  68  96 CALM      29.88S
BRANSON        CLEAR     66  66 100 CALM      29.91S

......SURROUNDING SGF CWA......

CITY           SKY/WX    TMP DP  RH WIND       PRES   REMARKS
CHANUTE        CLEAR     67  66  97 CALM      29.85R
PARSONS        CLEAR     65  65 100 N3        29.86R
COFFEYVILLE    CLEAR     68  66  93 S5        29.84R
EMPORIA        CLEAR     68  63  84 CALM      29.85R
GROVE OK       PTCLDY    70  68  94 CALM      29.87S
ROGERS AR      CLEAR     68  67  96 CALM      29.90S
HARRISON AR    CLEAR     66  65  96 CALM      29.90S FOG
NEAR YELLVILLE CLOUDY    66  66 100 CALM      29.89R FOG

......KANSAS AND MISSOURI......

CITY           SKY/WX    TMP DP  RH WIND       PRES   REMARKS
KANSAS CTY INT CLEAR     69  66  90 S3        29.84R
DOWNTOWN KC    CLEAR     75  66  73 VRB3      29.83R
COLUMBIA       CLEAR     70  68  93 SE6       29.86R
SEDALIA        CLEAR     72  69  90 SW5       29.86S
ST JOSEPH      CLEAR     69  67  93 S5        29.83R
ST LOUIS       PTCLDY    71  69  93 CALM      29.85R
SPIRIT OF STL  CLEAR     73  70  90 NW5       29.83S
KIRKSVILLE     CLEAR     74  70  87 W6        29.83S
WICHITA        PTCLDY    67  64  90 S5        29.84R
TOPEKA         CLEAR     71  68  90 CALM      29.84R
OLATHE         PTCLDY    71  67  87 SW3       29.85S

......TENNESSEE......

CITY           SKY/WX    TMP DP  RH WIND       PRES   REMARKS
MEMPHIS        FAIR      70  69  97 CALM      29.89R
NASHVILLE      FAIR      69  67  93 CALM      29.93R

......ARKANSAS.......

CITY           SKY/WX    TMP DP  RH WIND       PRES   REMARKS
FAYETTEVILLE   FOG       63  63 100 CALM      29.88S VSB 3/4
FT SMITH       CLEAR     71  70  96 E3        29.84R
LITTLE ROCK    FAIR      69  69 100 SE3       29.85S

......OKLAHOMA.......

CITY           SKY/WX    TMP DP  RH WIND       PRES   REMARKS
TULSA          CLEAR     73  68  84 S8        29.82S
PONCA CITY     CLEAR     66  61  84 CALM      29.84S
MCALESTER      CLEAR     69  67  93 CALM      29.84R
OKLAHOMA CITY  PTCLDY    68  66  93 S3        29.85R

......IOWA............

CITY           SKY/WX    TMP DP  RH WIND       PRES   REMARKS
DES MOINES     PTCLDY    74  68  81 CALM      29.79R
QUAD CITIES    FAIR      67  64  90 CALM      29.82R

......ILLINOIS........

CITY           SKY/WX    TMP DP  RH WIND       PRES   REMARKS
QUINCY         CLEAR     70  67  90 S7        29.83S
CHICAGO        FAIR      73  65  75 SW6       29.82R





USA.gov is the U.S. government's official web portal to all federal, state and local government web resources and services.